Weather History for Houghton, MI

Change the Weather History Date:

Tuesday, November 22, 2011

  Actual Average Record
Temperature  
Mean Temperature 26 °F -  
Max Temperature 32 °F 34 °F 57 °F (2012)
Min Temperature 23 °F 23 °F 4 °F (1956)
Degree Days  
Heating Degree Days 38    
Moisture  
Dew Point 26 °F    
Average Humidity 92    
Maximum Humidity 100    
Minimum Humidity 82    
Precipitation  
Precipitation 0.00 in - - ()
Sea Level Pressure  
Sea Level Pressure 30.14 in    
Wind  
Wind Speed 3 mph (SSW)    
Max Wind Speed 12 mph    
Max Gust Speed -    
Visibility 7 miles    
Events Fog    
Averages and records for this station are not official NWS values.
T = Trace of Precipitation, MM = Missing Value Source: NWS Daily Summary

Daily Weather History Graph

Daily Weather History Graph

Search for Another Location

Airport:

Trip Planner

Search our weather history database for the weather conditions in past years. The results will help you decide how hot, cold, wet, or windy it might be!

Date:

Astronomy

Nov. 22, 2011 Rise Set
Actual Time 8:07 AM EST 5:12 PM EST
Civil Twilight 7:33 AM EST 5:46 PM EST
Nautical Twilight 6:55 AM EST 6:23 PM EST
Astronomical Twilight 6:19 AM EST 7:00 PM EST
Moon 4:49 AM EST (11/22) 3:17 PM EST (11/22)
Length of Visible Light 10h 12m
Length of Day
9h 04m
Waning Crescent, 9% of the Moon is Illuminated
Nov 22
Waning Crescent
Nov 25
New
Dec 2
First Quarter
Dec 10
Full
Dec 17
Last Quarter

Hourly Weather History & Observations

Time (EST) Temp. Windchill Dew Point Humidity Pressure Visibility Wind Dir Wind Speed Gust Speed Precip Events Conditions
12:53 AM 28.0 °F 24.2 °F 27.0 °F 96% 30.30 in 7.0 mi South 3.5 mph - N/A   Overcast
1:53 AM 26.1 °F - 24.1 °F 92% 30.29 in 3.0 mi Calm Calm - N/A   Mostly Cloudy
2:32 AM 24.8 °F 20.5 °F 23.0 °F 93% 30.26 in 1.8 mi SW 3.5 mph - N/A   Mostly Cloudy
2:37 AM 24.8 °F 20.5 °F 23.0 °F 93% 30.26 in 0.2 mi SSW 3.5 mph - N/A Fog Light Freezing Fog
2:53 AM 25.0 °F 20.7 °F 24.1 °F 96% 30.31 in 0.8 mi SW 3.5 mph - N/A   Overcast
2:56 AM 24.8 °F - 24.8 °F 100% 30.25 in 2.5 mi Calm Calm - N/A   Overcast
3:03 AM 24.8 °F - 24.8 °F 100% 30.26 in 7.0 mi Calm Calm - N/A   Overcast
3:53 AM 26.1 °F - 25.0 °F 96% 30.31 in 9.0 mi Calm Calm - N/A   Overcast
4:53 AM 26.1 °F 21.9 °F 25.0 °F 96% 30.29 in 9.0 mi SSW 3.5 mph - N/A   Overcast
5:53 AM 26.1 °F - 24.1 °F 92% 30.27 in 8.0 mi Calm Calm - N/A   Overcast
6:26 AM 26.6 °F 22.6 °F 24.8 °F 93% 30.22 in 8.0 mi SSW 3.5 mph - N/A   Overcast
6:53 AM 26.6 °F 21.2 °F 24.8 °F 93% 30.21 in 8.0 mi SSW 4.6 mph - N/A   Overcast
7:53 AM 26.6 °F - 24.8 °F 93% 30.19 in 7.0 mi Calm Calm - N/A   Overcast
8:53 AM 28.0 °F 20.8 °F 25.0 °F 88% 30.24 in 6.0 mi SSW 6.9 mph - N/A   Overcast
9:53 AM 28.9 °F 21.1 °F 25.0 °F 85% 30.23 in 6.0 mi South 8.1 mph - N/A   Overcast
10:53 AM 28.4 °F 18.5 °F 24.8 °F 86% 30.17 in 9.0 mi SSW 11.5 mph - N/A   Overcast
11:53 AM 30.0 °F 25.2 °F 26.1 °F 85% 30.19 in 10.0 mi SSE 4.6 mph - N/A   Overcast
12:53 PM 30.9 °F 24.3 °F 26.1 °F 82% 30.15 in 10.0 mi SSW 6.9 mph - N/A   Overcast
1:12 PM 30.2 °F 25.4 °F 26.6 °F 86% 30.09 in 10.0 mi SSE 4.6 mph - N/A   Overcast
1:30 PM 30.2 °F 26.7 °F 26.6 °F 86% 30.10 in 10.0 mi South 3.5 mph - N/A   Overcast
1:41 PM 30.2 °F 26.7 °F 26.6 °F 86% 30.09 in 10.0 mi SSW 3.5 mph - N/A   Overcast
1:53 PM 30.9 °F 26.2 °F 27.0 °F 85% 30.14 in 10.0 mi South 4.6 mph - N/A   Overcast
2:43 PM 30.2 °F 25.4 °F 26.6 °F 86% 30.08 in 10.0 mi SSE 4.6 mph - N/A   Overcast
2:53 PM 30.9 °F 26.2 °F 27.0 °F 85% 30.13 in 10.0 mi South 4.6 mph - N/A   Overcast
3:28 PM 30.2 °F 24.3 °F 26.6 °F 86% 30.06 in 10.0 mi SE 5.8 mph - N/A   Overcast
3:45 PM 30.2 °F 24.3 °F 28.4 °F 93% 30.05 in 10.0 mi SE 5.8 mph - N/A   Overcast
3:53 PM 30.9 °F 25.2 °F 27.0 °F 85% 30.09 in 10.0 mi SE 5.8 mph - N/A   Overcast
4:53 PM 30.0 °F - 28.0 °F 92% 30.08 in 10.0 mi Calm Calm - N/A   Overcast
5:53 PM 30.0 °F - 28.0 °F 92% 30.07 in 10.0 mi Calm Calm - N/A   Overcast
6:53 PM 30.0 °F - 28.0 °F 92% 30.07 in 10.0 mi Calm Calm - N/A   Overcast
7:53 PM 28.4 °F 24.6 °F 26.6 °F 93% 30.03 in 7.0 mi WNW 3.5 mph - N/A   Clear
8:45 PM 26.6 °F - 26.6 °F 100% 30.02 in 1.8 mi Calm Calm - N/A   Clear
8:50 PM 24.8 °F - 24.8 °F 100% 30.01 in 0.2 mi Calm Calm - N/A Fog Light Freezing Fog
8:53 PM 23.0 °F - 23.0 °F 100% 30.06 in 0.2 mi Calm Calm - N/A Fog Light Freezing Fog
9:05 PM 26.6 °F 22.6 °F 24.8 °F 93% 30.01 in 1.2 mi South 3.5 mph - N/A   Clear
9:07 PM 26.6 °F 22.6 °F 24.8 °F 93% 30.02 in 3.0 mi South 3.5 mph - N/A   Clear
9:28 PM 24.8 °F - 24.8 °F 100% 30.01 in 2.5 mi Calm Calm - N/A   Scattered Clouds
9:31 PM 26.6 °F 22.6 °F 24.8 °F 93% 30.01 in 4.0 mi SW 3.5 mph - N/A   Mostly Cloudy
9:53 PM 25.0 °F 20.7 °F 25.0 °F 100% 30.06 in 5.0 mi West 3.5 mph - N/A   Overcast
10:53 PM 28.9 °F 23.9 °F 28.0 °F 96% 30.05 in 10.0 mi West 4.6 mph - N/A   Overcast
11:53 PM 32.0 °F 25.6 °F 28.0 °F 85% 30.04 in 10.0 mi WSW 6.9 mph - N/A   Overcast